Theta_e
280 280 281 281 281 281 281 282 283 285 289 293 301 308 312 312 312 311 310 309 308 307 307 306 305 305 303 304 301 300 301 301 309 297 297 296 296 296 297 296 296 296 295
278 280 280 280 280 280 281 281 281 283 285 289 293 300 304 306 307 308 307 307 307 306 305 304 304 303 302 301 299 299 299 300 301 302 295 294 295 295 295 295 295 295 294
277 277 278 279 279 280 280 280 281 282 283 285 288 293 298 300 302 303 304 305 305 305 304 304 303 302 300 299 299 299 298 299 299 298 295 294 293 293 294 294 294 294 293
276 276 276 276 277 278 279 280 280 281 282 283 284 286 289 291 294 297 300 301 301 302 302 302 303 302 301 300 299 298 298 297 296 296 295 293 293 292 293 293 292 292 293
275 275 275 275 275 276 277 278 280 280 281 282 282 283 284 287 288 292 296 298 299 299 300 300 300 300 300 300 299 297 297 297 295 295 294 293 292 290 291 293 293 292 292
275 275 274 274 274 275 275 275 276 278 279 281 281 282 282 283 286 288 293 296 297 298 298 298 298 298 298 299 299 299 298 297 296 296 295 294 293 293 293 292 292 290 293
274 274 273 273 273 273 274 274 275 274 276 278 279 281 281 281 284 286 289 293 295 296 297 297 297 297 297 297 297 297 297 297 298 296 296 295 294 294 294 292 292 292 293
273 273 272 272 272 272 273 273 273 273 273 275 277 279 280 281 282 284 285 287 291 293 295 295 295 296 296 296 296 296 295 295 296 296 296 297 297 297 296 295 294 292 290
272 271 270 270 270 271 271 271 271 272 272 273 274 276 278 279 281 283 283 283 284 287 290 292 293 294 294 295 294 294 294 294 295 295 295 295 296 296 296 294 291 290 289
271 270 269 268 268 269 270 270 270 270 271 272 273 275 276 276 277 281 282 282 283 283 285 286 288 289 292 293 292 292 292 293 293 293 293 293 293 294 295 294 294 292 290
270 269 268 267 267 268 269 268 269 269 270 271 272 273 275 274 275 279 280 281 281 282 283 283 284 285 288 291 292 291 292 293 293 293 292 292 292 292 292 292 293 293 292
269 268 267 267 266 267 267 267 267 268 268 270 271 272 273 273 274 276 277 279 279 280 281 281 282 284 288 290 291 292 291 292 292 291 290 290 289 289 288 289 290 290 290
267 266 266 265 265 265 265 266 266 267 268 269 270 271 272 272 272 273 275 276 277 278 279 280 281 283 287 289 290 291 291 291 290 290 290 289 289 289 289 288 287 288 287
265 265 264 264 264 264 265 265 265 266 267 267 269 270 270 271 271 272 273 274 275 276 278 278 280 282 285 288 290 290 291 290 290 290 290 289 288 288 286 287 286 283 284
263 263 263 264 263 263 264 264 264 265 266 267 268 269 269 270 270 271 272 274 275 276 277 276 278 281 284 285 288 289 290 289 289 290 290 287 286 285 284 285 283 282 283
262 263 263 262 263 263 263 263 263 264 265 266 267 267 268 268 269 270 271 272 273 275 275 275 276 279 280 281 283 287 288 288 288 289 288 286 285 284 283 281 282 282 283
260 261 261 261 262 262 262 262 262 263 263 263 264 265 265 266 268 269 269 270 271 272 271 273 274 275 277 278 278 280 282 287 287 287 287 286 285 284 282 281 281 282 283
260 260 259 260 260 261 261 261 261 261 261 262 262 262 263 265 265 266 268 268 266 266 267 269 270 272 272 273 274 275 277 280 286 286 285 285 285 284 282 282 282 282 282
260 259 259 259 259 259 259 259 260 260 260 260 261 261 261 261 263 264 265 264 264 264 265 266 267 267 268 269 269 270 272 275 278 285 285 284 284 284 283 283 283 283 283
261 261 260 258 259 259 259 259 259 260 260 260 260 261 260 259 261 262 263 263 263 263 263 264 264 264 265 266 266 267 269 272 275 279 285 285 284 283 284 283 283 282 282
260 260 260 259 258 258 258 258 259 259 259 259 260 260 261 263 264 264 263 262 261 261 262 262 262 262 263 263 264 266 267 269 271 274 277 285 284 283 283 283 283 282 282
260 259 258 258 258 258 258 258 258 258 259 259 260 260 261 260 260 260 260 260 261 261 261 261 261 261 261 262 263 264 265 267 269 272 274 277 283 284 283 283 282 282 281
259 258 258 258 258 258 258 258 258 259 259 259 259 259 259 259 259 259 259 259 260 261 261 261 261 261 262 262 262 262 263 265 267 267 269 272 275 280 283 283 282 282 281
260 259 258 258 258 258 258 259 259 259 258 258 259 259 260 259 259 259 259 259 259 260 261 262 262 262 262 262 262 262 263 263 264 265 266 268 270 274 278 283 282 281 281
260 259 259 258 258 258 258 259 259 259 259 259 259 260 260 259 259 259 259 259 260 260 260 262 262 262 262 262 262 263 263 263 263 264 264 266 268 271 273 276 282 281 280
260 260 259 258 258 258 258 258 259 259 259 259 260 260 260 260 260 260 259 259 259 261 261 261 262 263 262 262 262 262 263 263 263 264 264 264 266 268 271 274 279 281 280
Wind_Speed
29 31 32 34 35 35 36 37 37 37 36 31 15 10 20 25 29 31 28 29 31 30 30 33 30 31 31 35 30 34 26 20 5 6 8 13 14 22 25 28 25 25 23
25 27 29 31 34 35 37 40 39 37 38 34 27 10 6 12 16 23 22 26 28 27 29 28 27 27 29 27 28 27 31 33 17 6 12 11 12 19 23 26 24 24 23
22 24 27 30 33 35 35 37 39 40 39 38 35 27 11 1 6 14 20 24 26 27 28 29 28 29 28 27 24 25 25 30 27 15 11 13 13 17 18 20 21 23 22
21 21 24 26 29 32 33 34 35 37 38 39 35 33 26 29 17 4 9 13 15 17 19 25 26 28 30 30 29 30 28 29 25 19 15 11 11 13 18 19 17 22 21
18 20 22 23 24 26 31 33 33 32 33 34 36 34 37 33 36 20 6 7 10 11 13 15 19 25 28 30 27 29 28 29 23 20 11 8 12 11 20 21 17 22 19
15 18 20 22 23 24 27 29 31 33 31 30 30 32 34 31 42 33 12 6 9 11 13 15 17 19 21 24 27 28 33 29 24 23 18 13 19 22 23 24 19 9 4
13 15 18 21 22 23 24 26 27 32 32 33 33 33 33 32 39 40 22 10 8 10 12 14 16 18 19 22 26 26 27 32 35 39 27 27 25 32 33 28 26 18 9
11 13 16 19 21 22 22 23 25 27 30 30 32 30 28 30 34 37 32 24 16 9 9 10 13 14 16 19 22 25 29 32 35 34 37 40 36 35 34 37 36 25 13
9 11 14 16 19 21 21 23 25 27 30 29 26 26 26 27 29 32 32 30 28 22 13 8 9 11 12 14 20 23 27 32 30 34 31 34 31 30 32 31 27 22 5
10 12 15 16 17 18 19 21 21 21 21 24 26 21 19 24 24 27 29 25 25 24 22 16 14 10 10 12 16 21 20 25 29 27 28 27 21 27 27 34 34 23 9
12 14 16 17 17 16 17 18 20 22 23 21 20 21 16 19 23 22 23 23 23 22 19 22 23 22 15 11 14 20 21 23 25 25 25 23 21 26 30 31 27 29 20
12 15 18 19 17 16 17 17 17 17 19 20 19 18 16 19 20 20 21 21 19 18 19 23 27 25 16 12 13 18 19 20 22 24 23 24 27 28 27 24 23 20 17
15 19 20 18 17 14 15 15 15 14 14 16 17 18 19 19 21 19 20 21 20 20 18 24 25 24 17 14 13 17 19 21 22 21 21 22 27 30 28 23 18 18 13
17 19 18 15 14 13 13 12 13 12 13 14 16 18 20 20 19 20 25 25 24 23 23 26 25 22 17 13 12 13 20 25 23 20 19 19 26 29 28 24 22 17 18
14 13 12 12 12 13 11 12 13 12 12 17 18 18 20 20 19 24 24 24 23 23 26 22 19 17 16 18 13 8 19 22 21 20 19 23 23 27 26 28 22 22 8
11 10 10 10 11 12 12 14 12 13 14 16 17 17 18 20 23 23 22 22 22 21 20 16 15 13 13 15 16 13 10 16 18 19 20 21 21 24 23 23 23 19 15
10 10 9 9 9 10 11 12 16 17 15 14 14 14 16 19 20 21 22 22 21 19 14 12 12 13 14 11 14 16 16 11 17 19 19 20 21 22 23 22 19 17 15
12 12 9 8 9 10 10 13 13 15 19 19 14 15 15 15 18 20 19 20 14 10 8 10 11 12 13 13 12 15 18 18 10 16 18 20 23 24 22 21 21 20 17
10 8 8 8 9 10 12 13 13 14 17 20 20 15 14 17 18 15 13 11 13 12 11 11 11 13 13 13 13 14 15 16 17 11 14 18 20 23 23 22 22 21 19
10 11 11 10 10 11 11 12 13 14 15 17 17 17 15 15 15 15 12 12 13 14 13 13 11 13 14 13 13 14 15 15 14 15 10 17 19 21 20 23 23 23 23
11 13 14 14 11 12 12 12 12 14 16 16 18 17 16 19 19 17 17 15 15 14 13 12 12 12 13 13 13 13 13 13 13 14 14 10 18 18 19 21 22 22 22
14 15 14 13 12 12 12 12 13 14 16 18 19 16 15 15 16 17 17 16 17 17 16 16 15 14 14 14 13 13 12 12 11 11 12 11 8 17 19 20 19 22 23
13 13 13 13 13 14 14 13 14 15 17 18 19 18 14 14 15 17 18 18 19 19 18 18 18 19 18 18 16 15 14 12 10 12 13 13 10 6 17 18 20 20 21
15 16 15 15 14 15 15 15 15 17 19 20 19 19 18 17 18 19 21 19 19 20 19 19 21 21 22 20 19 17 16 17 16 17 17 16 15 12 7 16 20 22 22
15 16 16 16 16 16 16 16 17 18 19 19 20 19 20 20 21 22 20 21 23 22 22 21 21 23 23 22 20 20 20 20 20 19 19 19 20 17 15 10 16 21 22
15 16 17 17 18 17 16 17 19 19 21 21 21 21 21 23 26 25 24 25 24 24 23 22 21 21 22 22 22 20 20 21 21 19 18 19 20 21 18 15 13 19 23
Wind_Direction
356 355 355 353 353 356 355 346 349 351 353 349 335 253 206 206 211 211 209 207 203 205 205 208 207 207 208 212 209 216 215 212 184 191 191 203 207 211 212 211 216 221 226
351 354 355 353 356 356 359 354 356 356 0 2 357 342 243 225 217 214 205 208 205 202 204 206 206 203 210 207 209 217 213 214 208 162 201 198 207 205 205 207 212 215 222
347 349 353 356 356 356 356 357 360 3 3 8 9 16 17 103 224 218 218 219 215 211 210 212 211 209 207 204 205 209 213 214 206 193 174 194 202 193 191 202 210 217 223
343 347 348 350 353 351 354 358 0 5 8 11 10 19 17 36 30 5 234 223 221 219 222 226 224 219 215 213 209 217 214 214 208 192 182 181 190 191 192 194 200 213 218
341 343 345 344 346 349 352 356 359 6 6 9 14 15 20 23 17 9 326 253 235 227 224 219 221 230 230 227 214 212 209 208 201 192 166 172 179 175 194 198 197 207 217
336 340 341 344 346 349 348 350 355 357 3 6 9 14 15 14 15 15 359 301 255 240 238 240 237 240 240 239 233 235 230 205 199 204 185 194 195 200 191 193 185 167 207
330 336 340 343 343 345 347 348 352 351 353 0 1 3 9 12 13 13 15 348 294 270 258 251 247 244 242 238 237 231 233 230 225 213 198 204 200 207 202 192 191 186 184
323 331 337 341 340 340 342 345 345 349 347 349 355 356 359 8 11 13 15 20 11 316 285 277 267 258 248 241 236 231 229 229 228 225 223 225 223 224 215 209 201 191 183
311 322 331 336 334 335 336 338 340 341 344 341 345 352 352 357 6 12 14 12 12 14 10 321 283 273 262 250 237 228 227 229 225 229 229 238 234 233 220 204 186 169 157
307 316 324 327 326 326 327 329 330 332 329 332 333 342 347 349 0 7 13 13 5 0 7 13 18 339 282 258 242 232 213 219 218 218 222 236 236 229 216 210 199 176 144
297 310 320 322 320 318 317 322 323 328 326 328 327 331 338 345 353 359 6 10 4 352 351 351 351 345 333 268 243 238 228 230 218 213 212 213 210 212 199 199 202 202 179
294 306 314 317 316 313 313 315 319 323 324 323 326 327 333 339 342 347 355 357 358 354 344 341 338 336 326 295 249 238 234 231 214 194 187 188 193 198 194 188 188 193 199
299 308 312 312 312 310 311 313 317 321 322 322 323 323 328 335 334 337 345 345 346 346 339 334 331 334 330 310 262 237 222 210 197 189 186 187 191 197 192 183 183 182 180
299 305 310 309 308 312 311 311 312 315 317 318 316 317 320 325 327 332 335 336 337 337 335 332 330 328 338 324 292 242 216 205 197 198 192 178 187 193 185 186 176 174 158
298 301 302 304 307 310 308 305 303 302 302 306 307 307 311 314 315 317 319 319 321 322 321 325 327 332 335 351 335 269 212 203 195 192 178 172 181 184 184 188 188 176 180
294 297 298 302 305 307 310 312 304 296 300 300 297 299 302 299 306 310 311 311 311 311 313 314 313 317 327 339 343 334 229 205 200 189 179 178 176 179 177 183 188 186 178
283 287 290 294 298 300 308 310 312 314 306 299 304 310 308 307 309 309 311 309 307 308 305 305 305 310 313 332 338 340 348 251 221 202 187 181 179 179 174 179 180 184 183
283 283 280 280 284 292 301 299 301 305 310 311 314 315 314 311 310 309 311 313 319 323 311 305 307 311 314 319 334 336 339 354 245 218 200 186 179 178 179 185 186 185 179
279 273 275 280 281 284 290 289 292 295 296 301 314 320 317 318 315 311 313 307 308 307 307 302 304 305 308 312 319 321 321 330 342 250 210 197 188 181 183 188 189 189 181
281 283 283 284 287 286 281 280 287 289 291 296 302 306 314 320 319 318 310 304 300 297 298 296 299 296 298 302 307 309 312 316 327 353 246 213 201 194 189 184 185 184 188
283 287 290 289 277 278 278 278 282 285 287 291 291 297 303 302 301 297 295 292 289 287 289 288 286 288 290 294 297 300 301 302 308 327 333 250 213 199 199 193 186 186 183
286 287 287 281 281 278 277 281 280 281 284 287 292 294 296 290 287 286 286 286 287 286 285 284 282 278 282 283 287 286 290 295 300 313 315 331 255 210 199 193 188 185 181
281 281 281 282 282 285 285 281 281 283 283 283 286 290 291 284 282 282 283 285 286 287 287 283 280 281 281 280 277 273 274 278 282 283 298 309 316 305 203 194 189 186 183
278 281 282 286 284 285 285 288 289 284 280 281 282 283 284 284 282 281 284 282 280 282 284 285 283 281 280 277 274 272 269 265 268 275 278 280 289 294 310 203 193 190 188
286 286 288 288 285 284 288 289 287 285 282 280 282 282 284 285 285 288 287 285 287 285 285 286 282 282 279 277 273 270 268 265 264 263 265 266 271 274 274 295 204 192 186
291 291 292 290 285 285 285 287 286 284 281 282 281 281 282 283 287 288 288 289 290 290 289 284 282 279 277 275 272 268 263 263 263 261 259 258 259 262 262 265 269 195 187